Погода в Калининской

Россия / Ростовская область     47°50′44″N   42°14′13″E
темп.,
°C
ветер,
м/с
пор.,
м/с
влажн.,
%
обл.,
%
осадки,
мм/ч
давл.,
гПа
погр.,
м
17 апреля, сб
сб1700:00+11ю468974 0.1 101997
03:00+10юз2394100 0.3 101956
06:00+10юз3399100 1.5 101872
09:00+10сз5696100 8.7 1019147
12:00+12зсз347833 1.6 1021366
15:00+13юз45625 1.6 1020594
18:00+13зюз45597 0.0 102084
21:00+10з456650 0.0 102161
18 апреля, вс
вс1800:00+9зсз47735 0.0 1021107
03:00+9ссз23755 0.0 102165
06:00+8ссв337635 0.0 102195
09:00+10в226998 0.0 1020184
12:00+11ююв2265100 0.0 1020398
15:00+12ююв3368100 0.0 1019337
18:00+11ю2377100 0.3 101967
21:00+10вюв2388100 0.8 1018117
19 апреля, пн
пн1900:00+10вюв1292100 0.9 101899
03:00+10св2293100 1.2 101777
06:00+10св2291100 0.1 101772
09:00+11в228796 0.1 1017203
12:00+11юв228683 0.0 1016337
15:00+11ю1290100 0.6 101565
18:00+12з0087100 0.0 101533
21:00+12всв2285100 0.0 101518
20 апреля, вт
вт2000:00+12всв3486100 0.0 101556
03:00+11в5791100 0.1 1012127
06:00+11в61099100 2.4 1010224
09:00+13вюв101590100 3.4 1008354
12:00+15юв121880100 0.1 1006456
15:00+16юв111876100 0.2 1005498
18:00+15ююв111877100 0.2 1005439
21:00+13ю61087100 2.7 1008216
21 апреля, ср
ср2100:00+11ююв10158723 1.1 1011439
03:00+11ююз9138438 1.2 1012619
06:00+10ююз81376100 0.3 1014721
09:00+12юз9127494 0.3 1016622
12:00+12юз577583 0.1 1018385
15:00+13ююз466995 0.2 1019441
18:00+13юз4572100 0.0 1020126
21:00+11ю578610 0.0 1022128